Date,TemperatureHighF,TemperatureAvgF,TemperatureLowF,DewpointHighF,DewpointAvgF,DewpointLowF,HumidityHigh,HumidityAvg,HumidityLow,PressureMaxIn,PressureMinIn,WindSpeedMaxMPH,WindSpeedAvgMPH,GustSpeedMaxMPH,PrecipitationSumIn
2013-1-1,34,16,7,11,5,-10,89,65,20,29.74,29.63,18,7,18,0.00
2013-1-2,24,16,10,5,-2,-12,71,46,25,29.86,29.73,22,7,22,0.00
2013-1-3,30,20,11,-1,-15,-26,57,24,10,29.88,29.80,19,7,21,0.00
2013-1-4,44,31,24,2,-13,-24,35,15,10,29.83,29.70,18,7,18,0.00
2013-1-5,39,26,20,11,5,-4,56,41,25,29.92,29.71,23,12,23,0.00
2013-1-6,48,38,26,5,-12,-21,29,12,10,29.90,29.69,27,13,27,0.00
2013-1-7,54,39,27,8,-6,-18,42,16,10,29.74,29.58,24,11,24,0.00
2013-1-8,55,38,26,14,-3,-17,58,21,10,29.91,29.55,33,12,33,0.00
2013-1-9,48,33,23,16,9,-5,62,39,11,29.99,29.77,34,16,34,0.00
2013-1-10,49,37,26,12,1,-12,53,24,10,29.77,29.33,30,15,30,0.00
2013-1-11,38,23,9,22,-4,-30,86,35,10,29.45,29.14,57,20,57,0.00
2013-1-12,18,7,-4,-1,-11,-26,82,48,14,29.55,29.44,22,9,23,0.00
2013-1-13,19,4,-5,7,-4,-10,83,72,33,29.63,29.51,21,7,21,0.00
2013-1-14,21,4,-2,7,-2,-6,85,79,51,29.65,29.56,17,7,17,0.00
2013-1-15,27,15,2,14,-2,-25,77,47,18,29.78,29.61,21,9,21,0.00
2013-1-16,48,33,25,16,12,6,63,44,18,29.99,29.77,23,8,23,0.00
2013-1-17,49,33,21,16,11,4,71,44,16,30.05,29.90,24,12,24,0.00
2013-1-18,56,41,31,6,-9,-18,31,12,10,29.90,29.79,18,9,18,0.00
2013-1-19,54,41,33,-1,-10,-18,20,11,10,29.94,29.79,24,11,24,0.00
2013-1-20,46,34,18,13,-5,-19,81,23,10,29.91,29.81,30,13,30,0.00
2013-1-21,55,37,18,14,-2,-15,85,23,10,29.85,29.79,21,9,21,0.00
2013-1-22,60,46,36,3,-7,-15,10,10,10,29.90,29.77,34,14,34,0.00
2013-1-23,65,50,40,7,-4,-12,10,10,10,29.93,29.86,22,11,22,0.00
2013-1-24,60,49,37,16,1,-12,40,15,10,29.87,29.72,30,13,30,0.00
2013-1-25,46,39,30,24,19,12,70,45,31,29.88,29.78,30,13,30,0.00
2013-1-26,54,42,33,31,20,5,91,44,15,29.78,29.51,20,10,20,0.00
2013-1-27,54,43,31,32,17,-6,97,45,10,29.56,29.47,32,14,32,0.00
2013-1-28,53,36,23,27,17,-6,96,54,10,29.53,29.33,37,15,37,0.00
2013-1-29,23,16,10,22,11,-2,95,82,38,29.56,29.35,36,14,36,0.00
2013-1-30,31,19,5,15,7,2,88,62,36,29.60,29.50,28,10,28,0.00
2013-1-31,52,31,23,17,8,-4,68,40,10,29.79,29.60,22,9,22,0.00
2013-2-1,43,33,25,14,7,-7,56,35,13,29.86,29.72,49,13,49,0.00
2013-2-2,52,34,21,17,6,-10,70,39,10,29.95,29.85,21,10,21,0.00
2013-2-3,55,38,24,14,-2,-16,61,24,10,29.91,29.64,24,8,24,0.00
2013-2-4,50,36,26,7,-1,-17,36,21,10,29.70,29.61,26,10,26,0.00
2013-2-5,50,39,33,13,3,-7,41,24,10,29.77,29.62,29,14,29,0.00
2013-2-6,54,40,25,31,15,-2,99,46,10,29.74,29.57,30,13,30,0.00
2013-2-7,43,30,21,34,21,14,99,73,35,29.83,29.73,25,11,25,0.00
2013-2-8,33,30,22,17,15,11,70,54,46,29.75,29.63,31,12,31,0.00
2013-2-9,32,28,17,22,18,16,98,70,53,29.63,29.27,32,15,32,0.00
2013-2-10,29,18,12,17,12,7,93,79,40,29.65,29.30,30,12,30,0.00
2013-2-11,19,14,10,13,10,7,91,85,76,29.65,29.57,40,14,40,0.01
2013-2-12,39,23,14,12,-7,-24,87,36,10,29.69,29.63,22,7,22,0.00
2013-2-13,47,30,19,10,1,-23,47,30,10,29.70,29.63,30,9,30,0.00
2013-2-14,33,21,10,19,11,4,92,68,34,29.86,29.67,40,14,40,0.00
2013-2-15,30,19,10,16,11,5,90,72,37,29.88,29.80,43,12,43,0.00
2013-2-16,51,37,19,11,-1,-10,69,23,10,29.86,29.70,22,11,22,0.00
2013-2-17,54,40,21,14,-7,-16,69,17,10,29.71,29.40,51,20,51,0.02
2013-2-18,40,23,15,20,4,-17,92,54,10,29.72,29.49,30,12,30,0.00
2013-2-19,39,25,14,13,7,-4,87,50,17,29.71,29.48,30,14,30,0.00
2013-2-20,32,23,16,28,17,9,96,77,50,29.48,29.34,21,9,21,0.01
2013-2-21,16,13,9,14,10,6,92,87,80,29.53,29.33,30,15,30,0.00
2013-2-22,29,18,10,18,13,7,94,80,54,29.59,29.49,26,10,26,0.00
2013-2-23,43,27,14,22,8,-3,92,47,20,29.54,29.35,25,14,25,0.00
2013-2-24,23,19,14,21,18,12,97,93,88,29.67,29.39,46,24,46,0.00
2013-2-25,42,21,9,25,8,-12,91,66,12,29.68,29.51,26,10,27,0.00
2013-2-26,29,21,16,19,10,-5,94,66,28,29.70,29.46,48,19,48,0.00
2013-2-27,33,19,11,15,6,-6,93,60,20,29.83,29.70,38,12,38,0.00
2013-2-28,37,25,15,9,-2,-19,52,32,11,29.86,29.80,27,10,27,0.00
2013-3-1,43,30,17,18,11,5,73,47,22,29.95,29.84,16,8,16,0.00
2013-3-2,66,44,29,19,10,-3,52,28,10,29.96,29.80,17,7,17,0.00
2013-3-3,56,45,37,18,8,-6,45,23,10,29.80,29.48,41,15,41,0.00
2013-3-4,40,24,10,24,17,6,97,75,38,29.81,29.48,35,13,35,0.00
2013-3-5,43,23,7,23,14,-2,90,72,19,29.86,29.78,33,13,33,0.00
2013-3-6,60,46,36,26,1,-13,58,19,10,29.78,29.62,36,13,36,0.00
2013-3-7,63,48,36,22,0,-9,55,16,10,29.73,29.63,26,12,26,0.00
2013-3-8,53,40,29,30,23,-2,99,54,14,29.70,29.43,17,8,17,0.00
2013-3-9,32,24,17,29,23,10,99,95,70,29.69,29.38,72,32,72,0.01
2013-3-10,32,23,15,15,12,8,93,64,43,29.75,29.68,37,20,39,0.00
2013-3-11,49,35,24,27,14,4,99,48,17,29.77,29.65,36,10,36,0.00
2013-3-12,35,25,21,26,24,21,99,94,59,29.89,29.77,17,6,17,0.00
2013-3-13,67,46,32,22,14,0,65,31,10,29.96,29.87,21,8,21,0.00
2013-3-14,65,52,41,21,8,-2,40,19,10,30.02,29.91,20,8,20,0.00
2013-3-15,66,54,45,18,6,-3,28,14,10,29.91,29.69,33,11,33,0.00
2013-3-16,50,40,33,33,23,5,96,56,17,29.75,29.59,34,16,34,0.01
2013-3-17,52,40,27,29,15,-6,81,42,10,29.62,29.36,45,18,45,0.00
2013-3-18,47,32,17,17,2,-13,68,34,10,29.66,29.56,38,11,38,0.00
2013-3-19,53,35,22,11,1,-17,60,27,10,29.93,29.64,30,12,30,0.00
2013-3-20,47,32,18,16,10,1,72,43,16,29.93,29.54,31,15,31,0.00
2013-3-21,52,39,25,31,19,-5,99,51,10,29.56,29.33,49,14,49,0.00
2013-3-22,39,29,22,26,21,14,99,76,39,29.56,29.36,45,23,45,0.01
2013-3-23,14,9,5,12,6,2,91,87,83,29.74,29.52,49,25,49,0.00
2013-3-24,10,7,5,4,0,-1,87,73,66,29.73,29.66,13,9,13,0.00
2013-3-25,7,7,7,0,0,0,71,71,71,29.66,29.66,9,9,10,0.00
2013-3-26,42,13,7,23,4,0,78,67,36,29.98,29.66,20,9,20,0.00
2013-3-27,59,40,26,27,20,13,76,50,18,30.08,29.94,26,10,26,0.00
2013-3-28,60,44,30,28,18,-1,83,42,10,30.12,30.03,28,11,28,0.00
2013-3-29,61,48,36,31,18,1,68,35,10,30.13,30.06,40,11,40,0.00
2013-3-30,61,46,9,35,18,-36,99,42,10,30.16,30.02,50,12,50,0.00
2013-3-31,68,46,29,33,16,-2,99,44,10,30.15,29.97,26,11,26,0.00
2013-4-1,51,37,28,28,24,15,88,60,33,30.10,29.98,32,12,32,0.00
2013-4-2,34,30,26,33,29,25,99,95,81,30.05,29.99,17,6,17,0.00
2013-4-3,52,38,28,39,23,-4,99,66,10,30.12,30.02,34,8,34,0.00
2013-4-4,69,49,38,25,13,0,57,29,10,30.14,30.05,24,10,24,0.00
2013-4-5,68,54,40,25,9,-4,44,19,10,30.07,29.82,49,15,49,0.00
2013-4-6,58,47,35,30,16,-1,69,33,10,29.97,29.90,26,11,26,0.00
2013-4-7,58,46,34,30,14,-2,83,34,10,29.93,29.80,42,11,42,0.00
2013-4-8,62,45,21,33,16,1,99,42,10,29.83,29.56,46,17,46,0.00
2013-4-9,21,8,2,21,5,-1,98,87,82,29.96,29.74,0,0,0,0.00
2013-4-10,21,10,-2,14,5,-6,87,81,66,29.95,29.83,0,0,0,0.00
2013-4-11,47,33,18,35,21,5,99,65,37,29.92,29.73,36,8,36,0.00
2013-4-12,55,36,26,32,27,-5,99,75,10,29.97,29.88,35,8,35,0.00
2013-4-13,60,44,26,32,15,-2,99,47,10,29.96,29.56,51,17,51,0.00
2013-4-14,48,38,28,33,15,-8,99,51,10,29.80,29.57,50,16,50,0.00
2013-4-15,42,28,21,24,13,-3,99,61,17,29.93,29.68,46,22,46,0.00
2013-4-16,39,26,20,27,22,18,99,87,55,29.93,29.74,49,24,49,0.05
2013-4-17,27,21,11,27,20,9,99,95,86,29.96,29.81,40,12,40,0.01
2013-4-18,29,17,7,17,11,4,92,78,53,30.06,29.93,31,13,31,0.00
2013-4-19,51,34,18,19,8,-6,56,36,10,30.05,29.95,24,10,24,0.00
2013-4-20,54,40,33,33,19,11,97,46,21,30.02,29.90,30,11,30,0.00
2013-4-21,57,44,34,30,18,-2,80,40,10,30.07,29.98,25,9,25,0.00
2013-4-22,55,31,15,34,22,4,99,75,13,30.11,29.92,56,18,56,0.05
2013-4-23,30,20,12,21,16,10,93,85,60,30.10,30.00,17,7,17,0.00
2013-4-24,51,34,19,18,9,-13,81,43,10,30.18,30.05,27,10,27,0.00
2013-4-25,63,45,28,33,14,-1,57,33,10,30.14,29.95,40,11,40,0.00
2013-4-26,60,48,39,25,10,-3,51,24,10,30.24,30.03,32,14,32,0.00
2013-4-27,68,54,40,22,9,-4,47,20,10,30.23,30.10,34,12,34,0.00
2013-4-28,75,59,46,28,6,-4,41,12,10,30.13,29.98,30,10,30,0.00
2013-4-29,73,59,42,30,17,3,57,24,10,30.02,29.81,37,13,37,0.00
2013-4-30,64,53,32,38,21,-1,98,37,10,29.99,29.81,31,13,31,0.00
2013-5-1,33,25,17,32,25,16,99,97,92,32.23,29.98,34,19,34,0.00
2013-5-2,40,26,15,27,15,0,97,68,25,30.46,30.30,18,7,18,0.00
2013-5-3,54,41,26,20,10,-6,70,32,10,30.30,30.08,32,12,32,0.00
2013-5-4,58,42,32,24,20,12,65,42,18,30.18,30.06,25,10,25,0.00
2013-5-5,52,39,29,19,12,2,58,34,14,30.19,30.07,29,14,29,0.00
2013-5-6,64,48,33,34,22,13,71,39,14,30.12,29.99,25,12,25,0.00
2013-5-7,67,50,40,38,28,11,91,47,13,30.05,29.96,33,13,33,0.00
2013-5-8,55,41,37,39,36,31,99,83,45,30.08,29.99,34,11,34,0.26
2013-5-9,49,39,32,41,37,30,99,91,63,30.19,30.06,34,11,34,0.32
2013-5-10,56,46,38,39,32,21,86,60,27,30.28,30.15,42,11,42,0.01
2013-5-11,60,49,37,41,34,25,89,58,29,30.34,30.25,101,11,101,0.00
2013-5-12,71,58,45,31,23,11,52,29,11,30.26,30.20,27,12,27,0.00
2013-5-13,79,65,54,31,21,12,33,20,10,30.26,30.16,34,12,34,0.00
2013-5-14,78,62,52,42,29,12,67,33,10,30.17,30.05,49,13,49,0.05
2013-5-15,75,60,49,46,35,17,81,44,12,30.10,30.02,30,9,30,0.05
2013-5-16,77,61,49,43,28,9,80,34,10,30.05,29.94,36,9,36,0.01
2013-5-17,79,66,49,45,20,4,85,25,10,30.02,29.93,35,14,35,0.00
2013-5-18,72,60,45,36,12,0,71,18,10,30.01,29.89,41,11,41,0.00
2013-5-19,60,49,42,36,28,6,74,49,12,29.95,29.86,33,8,33,0.02
2013-5-20,59,45,38,44,34,20,99,68,25,30.06,29.92,30,9,30,0.05
2013-5-21,63,50,38,37,28,11,88,49,13,30.07,29.95,37,9,37,0.00
2013-5-22,71,55,38,40,28,7,82,43,10,30.10,29.97,44,11,44,0.00
2013-5-23,56,47,42,47,42,40,99,85,60,30.13,30.04,46,22,46,0.00
2013-5-24,79,62,48,50,32,7,99,48,10,30.09,30.01,38,18,38,0.04
2013-5-25,83,67,48,46,22,4,72,25,10,30.10,30.00,30,11,30,0.00
2013-5-26,80,67,58,40,16,4,50,16,10,30.07,29.97,36,11,36,0.00
2013-5-27,77,64,52,42,15,0,57,18,10,30.01,29.89,32,9,32,0.00
2013-5-28,74,61,48,47,33,12,79,41,10,29.94,29.75,36,14,36,0.00
2013-5-29,59,51,44,48,39,17,99,66,21,29.85,29.73,39,15,39,0.01
2013-5-30,63,52,43,29,15,2,51,27,10,29.96,29.81,53,18,53,0.00
2013-5-31,63,54,43,27,7,-4,52,17,10,30.08,29.93,47,20,47,0.00
2013-6-1,65,50,38,32,26,3,72,42,15,30.23,30.08,39,13,39,0.00
2013-6-2,76,58,38,36,24,7,79,35,10,30.22,29.99,30,15,30,0.00
2013-6-3,83,71,60,21,14,5,18,11,10,30.04,29.92,36,15,36,0.00
2013-6-4,75,59,46,49,31,1,99,43,10,30.19,30.04,38,12,38,0.12
2013-6-5,54,45,41,52,44,40,99,94,77,30.20,30.14,34,12,34,0.02
2013-6-6,75,60,42,44,30,9,99,42,10,30.19,30.11,26,10,26,0.00
2013-6-7,79,62,49,39,33,15,62,36,10,30.18,29.99,30,10,30,0.00
2013-6-8,70,62,50,45,34,22,56,36,17,30.13,29.95,40,17,40,0.00
2013-6-9,87,66,47,36,24,11,63,26,10,30.16,30.09,27,13,27,0.00
2013-6-10,92,77,62,28,19,8,20,11,10,30.13,30.05,38,11,38,0.00
2013-6-11,91,79,69,27,18,10,10,10,10,30.14,29.98,48,17,48,0.00
2013-6-12,82,69,60,19,10,3,10,10,10,30.24,30.13,34,8,34,0.00
2013-6-16,67,61,57,42,35,30,56,37,27,30.24,30.16,40,14,40,0.06
2013-6-17,79,62,52,44,33,18,67,37,12,30.25,30.16,49,13,49,0.02
2013-6-18,77,61,51,50,43,24,82,55,16,30.21,30.05,34,16,34,0.07
2013-6-19,84,66,49,55,36,6,99,48,10,30.10,29.91,41,19,41,0.00
2013-6-20,86,73,60,35,16,5,34,12,10,30.07,29.97,38,13,38,0.00
2013-6-21,90,74,58,42,22,8,53,17,10,30.06,29.97,29,10,33,0.00
2013-6-22,83,68,51,46,31,12,71,32,10,30.08,29.95,34,10,34,0.00
2013-6-23,79,66,50,46,32,15,85,36,10,30.13,29.99,40,15,42,0.00
2013-6-24,82,66,51,45,31,10,68,37,10,30.06,29.95,35,14,35,0.00
2013-6-25,87,73,61,24,15,4,20,11,10,30.17,29.99,36,12,36,0.00
2013-6-26,89,75,57,45,25,13,41,17,10,30.24,30.16,27,12,27,0.00
2013-6-27,91,77,65,40,28,15,40,18,10,30.38,30.23,30,14,30,0.00
2013-6-28,93,77,61,50,36,22,64,29,10,30.38,30.25,44,16,44,0.04
2013-6-29,67,67,67,38,37,36,35,33,32,30.26,30.25,4,3,4,0.12
2013-6-30,75,62,54,56,50,37,87,67,33,30.30,30.24,23,10,23,0.05
2013-7-1,70,59,52,55,51,46,99,77,43,30.33,30.27,24,10,24,0.34
2013-7-2,76,63,51,53,42,13,99,54,11,30.33,30.23,35,12,35,0.00
2013-7-3,81,67,54,44,33,15,64,36,10,30.24,30.07,29,11,29,0.00
2013-7-4,83,70,58,45,31,17,61,27,10,30.14,30.08,31,11,31,0.00
2013-7-5,87,69,58,55,41,24,84,42,10,30.09,30.02,34,10,40,0.09
2013-7-6,69,63,59,55,49,45,78,61,48,30.08,29.87,25,10,25,0.09
2013-7-7,84,68,59,53,46,31,67,48,16,29.98,29.88,43,10,43,0.00
2013-7-8,92,74,60,50,36,20,68,30,10,30.00,29.93,40,13,40,0.00
2013-7-9,90,76,67,39,29,17,33,19,10,30.08,29.99,30,7,30,0.00
2013-7-10,82,68,58,56,45,30,82,47,22,30.07,29.95,34,12,34,0.07
2013-7-11,86,69,-29,56,50,-47,99,56,17,30.01,29.85,34,17,34,0.02
2013-7-12,87,73,62,54,44,28,72,39,13,30.65,29.86,30,11,30,0.00
2013-7-13,86,67,58,58,52,35,96,64,19,30.00,29.94,43,8,43,0.34
2013-7-14,73,64,56,60,54,47,99,72,48,30.04,29.96,31,13,31,0.40
2013-7-15,68,59,51,60,53,41,99,84,45,30.04,29.97,24,11,24,0.05
2013-7-16,70,59,49,56,47,41,99,68,37,30.08,29.96,34,20,34,0.00
2013-7-17,72,58,52,56,52,44,99,83,38,30.08,30.04,34,20,34,0.00
2013-7-18,62,61,60,48,48,47,64,62,59,30.02,30.01,12,10,12,0.00
2013-7-19,77,65,55,56,51,47,86,63,35,30.03,29.96,27,12,31,0.00
2013-7-20,86,68,54,57,48,21,99,58,10,29.98,29.84,35,12,35,0.00
2013-7-21,88,72,57,52,36,18,82,34,10,29.90,29.84,33,15,33,0.00
2013-7-22,89,76,66,38,26,14,31,17,10,29.92,29.84,36,12,36,0.00
2013-7-23,88,76,65,50,26,16,59,19,10,30.02,29.89,33,13,33,0.00
2013-7-24,71,62,51,62,55,38,99,81,36,30.08,29.97,51,16,51,0.46
2013-7-25,72,61,50,54,49,41,99,68,35,30.08,29.92,46,14,46,0.00
2013-7-26,80,66,57,51,46,38,71,50,22,30.10,30.03,24,9,24,0.00
2013-7-27,84,66,54,58,45,21,99,54,11,30.04,29.89,23,11,24,0.01
2013-7-28,72,58,54,61,56,53,99,92,52,29.93,29.83,24,8,24,0.34
2013-7-29,72,62,55,56,51,41,99,70,40,30.03,29.83,34,11,34,0.04
2013-7-30,83,67,54,52,42,30,81,44,15,30.10,30.01,29,9,29,0.05
2013-7-31,81,68,56,58,46,34,99,48,20,30.15,30.03,36,12,36,0.30
2013-8-1,85,67,54,57,47,19,99,57,10,30.08,29.88,36,13,36,0.00
2013-8-2,86,70,59,51,40,19,69,38,10,29.97,29.85,36,12,36,0.00
2013-8-3,77,64,54,60,52,45,99,66,41,30.11,29.94,30,13,30,0.14
2013-8-4,84,64,54,56,48,19,99,62,10,30.05,29.96,30,12,30,0.34
2013-8-5,84,68,59,50,42,16,70,43,10,30.00,29.92,30,13,30,0.00
2013-8-6,84,68,59,47,38,17,61,38,10,29.95,29.88,34,12,34,0.00
2013-8-7,72,59,53,57,50,40,99,75,43,29.98,29.88,19,8,19,0.20
2013-8-8,73,58,50,58,51,39,99,80,39,30.00,29.87,24,9,24,0.00
2013-8-9,73,59,52,53,45,38,97,62,32,30.05,29.97,28,10,28,0.09
2013-8-10,83,63,49,56,43,16,99,58,10,30.05,29.97,32,11,32,0.01
2013-8-11,81,63,54,52,43,29,76,50,16,30.03,29.97,24,11,24,0.06
2013-8-12,76,64,52,54,44,36,99,52,25,30.06,29.98,28,9,28,0.00
2013-8-13,80,61,52,53,46,36,99,61,23,30.05,29.97,23,10,23,0.06
2013-8-14,79,63,52,48,42,30,75,49,17,30.05,29.97,29,10,29,0.05
2013-8-15,80,70,58,46,30,14,62,27,10,30.02,29.96,27,13,27,0.00
2013-8-16,88,74,61,50,30,18,45,23,10,30.04,29.99,23,9,23,0.00
2013-8-17,87,74,60,53,32,18,70,27,10,30.03,29.94,30,12,30,0.00
2013-8-18,87,74,62,56,35,17,80,32,10,29.99,29.94,27,11,27,0.00
2013-8-19,81,71,64,51,43,34,57,39,19,29.99,29.95,20,11,20,0.13
2013-8-20,88,75,64,50,31,19,57,23,10,29.99,29.91,27,12,27,0.00
2013-8-21,87,71,61,51,35,20,68,31,10,30.00,29.93,42,11,42,0.11
2013-8-22,82,64,53,60,53,41,99,71,30,30.09,29.96,25,9,25,1.09
2013-8-23,79,67,53,57,48,36,99,53,22,30.08,29.87,27,12,27,0.24
2013-8-24,83,68,60,52,43,28,66,43,14,29.98,29.89,24,9,24,0.00
2013-8-25,84,70,61,51,46,37,67,42,22,30.02,29.97,25,9,25,0.00
2013-8-26,86,73,65,53,45,36,63,38,19,30.03,29.96,30,12,30,0.00
2013-8-27,83,72,61,53,48,41,70,45,26,30.02,29.95,21,9,21,0.00
2013-8-28,91,73,62,51,38,22,60,31,10,30.01,29.95,17,7,17,0.00
2013-8-29,92,76,64,46,35,20,45,26,10,30.06,29.99,17,6,17,0.00
2013-8-30,90,72,65,53,42,22,64,36,10,30.06,29.99,25,6,25,0.00
2013-8-31,86,70,61,56,43,27,81,42,14,30.00,29.92,27,9,27,0.05
2013-9-1,73,62,56,59,53,43,93,74,42,30.04,29.97,30,13,30,0.01
2013-9-2,84,69,55,59,51,41,99,59,26,30.00,29.95,20,8,20,0.00
2013-9-3,90,74,61,53,43,25,73,36,10,30.02,29.95,26,9,26,0.00
2013-9-4,86,73,64,52,45,35,62,38,18,30.07,30.00,30,7,30,0.00
2013-9-5,87,74,64,46,36,20,50,28,10,30.07,30.01,27,10,27,0.00
2013-9-6,88,76,63,46,28,18,52,19,10,30.04,29.96,23,10,23,0.00
2013-9-7,86,73,62,45,32,16,53,26,10,30.01,29.93,24,9,24,0.00
2013-9-8,88,72,60,39,30,16,45,24,10,29.94,29.81,26,10,26,0.00
2013-9-9,80,64,54,56,46,32,99,57,18,29.90,29.78,35,14,35,0.00
2013-9-10,72,58,53,57,53,46,99,85,42,30.00,29.88,24,9,24,0.06
2013-9-11,66,58,54,58,55,52,99,90,61,30.02,29.97,23,10,23,0.08
2013-9-12,66,56,53,59,55,53,99,97,76,30.06,29.96,25,9,25,1.02
2013-9-13,66,57,48,63,55,48,99,93,67,29.97,29.80,37,18,37,0.56
2013-9-14,76,59,50,54,49,40,99,74,28,29.86,29.77,26,9,26,0.02
2013-9-15,58,52,50,55,51,49,99,97,81,30.04,29.86,23,11,23,0.04
2013-9-16,65,54,49,55,52,49,99,94,62,30.03,29.91,30,13,30,0.01
2013-9-17,82,64,53,53,41,17,99,50,10,29.94,29.77,21,11,21,0.00
2013-9-18,77,66,56,46,38,26,63,38,16,29.82,29.74,56,17,56,0.00
2013-9-19,59,53,46,45,41,27,87,63,41,29.97,29.78,29,12,29,0.00
2013-9-20,67,54,45,51,46,41,99,78,46,29.98,29.88,19,11,19,0.00
2013-9-21,81,63,49,50,35,12,99,43,10,29.90,29.73,23,11,25,0.00
2013-9-22,74,62,47,49,38,28,99,46,19,29.74,29.51,45,13,45,0.06
2013-9-23,60,50,42,47,33,16,99,60,20,29.88,29.44,39,17,39,0.25
2013-9-24,68,55,44,35,21,5,57,29,10,29.93,29.76,30,15,30,0.00
2013-9-25,79,64,46,36,14,1,68,18,10,29.77,29.50,38,14,38,0.00
2013-9-26,72,60,42,45,26,3,87,36,10,29.64,29.54,34,14,34,0.00
2013-9-27,58,47,35,47,37,20,99,75,23,29.78,29.58,27,12,27,0.00
2013-9-28,65,46,30,35,18,5,99,39,10,29.93,29.76,25,10,25,0.00
2013-9-29,74,58,45,24,10,0,30,16,10,29.92,29.75,27,13,27,0.00
2013-9-30,81,65,54,36,16,0,34,16,10,29.80,29.69,27,10,27,0.00
2013-10-1,71,60,52,40,25,12,65,28,15,29.89,29.78,34,13,34,0.00
2013-10-2,72,60,47,42,28,10,82,35,11,29.83,29.74,25,10,25,0.00
2013-10-3,70,55,44,47,29,5,99,51,10,29.74,29.57,36,12,36,0.00
2013-10-4,44,32,21,44,30,19,99,94,73,29.88,29.57,37,20,37,0.02
2013-10-5,52,38,24,21,7,-12,87,36,10,29.94,29.84,40,12,40,0.00
2013-10-6,65,52,40,28,7,-12,42,18,10,30.02,29.93,24,7,24,0.00
2013-10-7,80,58,43,18,13,4,34,18,10,29.99,29.80,24,10,24,0.00
2013-10-8,73,62,51,28,9,2,40,13,10,29.81,29.63,32,13,32,0.00
2013-10-9,69,55,41,39,25,8,92,37,10,29.77,29.68,26,10,26,0.00
2013-10-10,60,46,38,41,35,18,99,67,35,29.76,29.42,44,14,44,0.04
2013-10-11,61,45,37,39,25,13,99,50,17,29.82,29.44,54,16,54,0.02
2013-10-12,49,40,36,39,36,30,99,88,54,29.91,29.81,34,18,36,0.01
2013-10-13,61,45,32,50,37,31,99,76,41,29.89,29.73,36,19,40,0.02
2013-10-14,52,42,30,43,34,13,99,78,22,29.86,29.63,32,18,40,0.00
2013-10-15,34,29,25,28,22,19,93,76,60,29.94,29.85,27,14,28,0.00
2013-10-16,48,36,26,31,21,10,99,64,22,29.87,29.75,23,11,26,0.00
2013-10-17,52,40,30,28,20,1,88,48,20,29.81,29.74,18,8,22,0.00
2013-10-18,44,30,24,30,25,21,99,83,46,29.86,29.73,30,12,33,0.00
2013-10-19,67,44,30,20,11,2,66,30,10,29.84,29.72,20,9,20,0.00
2013-10-20,47,39,29,35,22,8,99,59,20,29.85,29.69,23,12,26,0.00
2013-10-21,53,39,28,31,22,8,99,56,20,29.91,29.83,21,8,23,0.00
2013-10-22,67,48,40,26,19,7,54,34,10,29.96,29.89,17,9,20,0.00
2013-10-23,66,52,37,28,18,3,70,31,10,29.96,29.89,15,8,21,0.00
2013-10-24,63,46,34,33,28,10,94,55,13,29.97,29.92,20,9,26,0.00
2013-10-25,64,50,33,33,22,6,95,41,10,29.96,29.87,22,10,26,0.00
2013-10-26,64,46,34,32,26,5,86,52,10,30.05,29.91,24,12,27,0.00
2013-10-27,69,52,42,29,11,1,61,22,10,29.91,29.69,18,10,25,0.00
2013-10-28,50,37,30,34,24,6,99,72,17,29.75,29.68,21,10,24,0.00
2013-10-29,38,36,34,34,34,33,98,92,81,29.93,29.87,23,16,27,0.01
2013-10-30,52,37,28,34,23,0,99,66,12,29.89,29.82,29,13,31,0.00
2013-10-31,51,38,27,27,11,-5,92,37,10,29.93,29.84,27,12,30,0.00
2013-11-1,43,37,31,28,20,13,78,52,37,30.18,29.93,27,12,34,0.00
2013-11-2,61,46,29,24,7,-7,82,26,10,30.18,29.90,25,13,31,0.00
2013-11-3,60,51,31,28,3,-6,85,18,10,29.90,29.72,42,22,49,0.00
2013-11-4,36,28,19,27,22,14,99,78,50,29.98,29.86,32,17,37,0.01
2013-11-5,34,25,18,28,13,-1,99,64,31,30.08,29.85,34,15,34,0.00
2013-11-6,46,34,19,10,2,-10,53,26,14,30.27,30.06,29,12,34,0.00
2013-11-7,57,40,26,14,8,-2,56,30,10,30.30,30.06,19,12,24,0.00
2013-11-8,64,53,43,11,2,-5,26,12,10,30.07,29.91,48,19,62,0.00
2013-11-9,56,45,35,26,17,10,68,35,17,30.22,30.07,20,13,21,0.00
2013-11-10,64,49,32,27,12,-2,75,28,10,30.23,30.18,23,10,25,0.00
2013-11-11,68,44,25,29,13,-3,99,43,10,30.44,30.20,23,8,24,0.00
2013-11-12,56,39,25,28,23,8,99,59,20,30.48,30.33,23,13,24,0.00
2013-11-13,69,50,40,10,-1,-10,24,12,10,30.33,30.05,19,8,21,0.00
2013-11-14,61,42,34,30,19,-9,80,48,10,30.08,29.85,23,14,27,0.00
2013-11-15,55,44,31,28,10,-3,85,32,10,29.85,29.61,40,18,53,0.00
2013-11-16,52,41,31,30,13,-4,97,37,10,29.63,29.51,55,22,62,0.00
2013-11-17,48,34,26,24,15,5,73,49,17,30.03,29.64,29,12,37,0.00
2013-11-18,60,43,25,12,1,-8,51,20,10,30.08,29.99,27,12,30,0.00
2013-11-19,58,46,40,16,1,-8,34,16,10,29.99,29.77,29,12,34,0.00
2013-11-20,54,44,34,32,18,7,91,38,15,29.89,29.78,15,8,17,0.00
2013-11-21,34,10,4,32,8,2,99,91,88,30.25,29.89,21,12,24,0.00
2013-11-22,36,21,9,26,16,7,96,81,52,30.32,30.23,19,6,21,0.00
2013-11-23,32,21,16,18,10,-4,99,66,26,30.34,30.10,30,12,34,0.01
2013-11-24,35,24,15,28,20,15,99,87,54,30.10,29.85,37,18,42,0.00
2013-11-25,34,27,22,25,18,11,99,69,48,30.15,29.90,46,18,58,0.00
2013-11-26,44,31,25,20,16,12,76,54,27,30.23,30.14,24,10,27,0.00
2013-11-27,58,45,29,15,3,-5,56,20,10,30.13,30.01,15,8,17,0.00
2013-11-28,43,35,26,26,20,4,99,57,21,30.11,30.04,24,13,24,0.00
2013-11-29,60,45,35,15,4,-5,42,21,10,30.11,30.02,22,11,25,0.00
2013-11-30,59,43,34,10,0,-12,34,18,10,30.11,30.05,19,9,19,0.00
2013-12-1,52,42,33,19,2,-7,40,20,10,30.07,29.88,26,11,28,0.00
2013-12-2,53,45,38,20,12,3,48,28,13,29.89,29.65,33,14,34,0.00
2013-12-3,51,35,7,25,12,4,99,49,17,29.65,29.51,40,20,49,0.00
2013-12-4,6,-1,-9,4,-4,-13,90,85,80,29.79,29.55,14,7,18,0.00
2013-12-5,6,-4,-9,0,-8,-13,84,82,76,29.82,29.69,14,6,15,0.00
2013-12-6,7,-4,-12,-2,-9,-17,84,78,59,29.90,29.81,14,6,17,0.00
2013-12-7,18,0,-5,14,-4,-9,92,82,70,29.89,29.57,14,7,16,0.00
2013-12-8,22,12,-1,14,6,-6,92,76,41,29.77,29.50,24,10,26,0.00
2013-12-9,22,9,-3,5,-8,-17,87,53,19,29.95,29.77,26,12,26,0.00
2013-12-10,46,28,16,12,0,-15,78,33,10,30.05,29.84,28,12,35,0.00
2013-12-11,38,24,10,15,3,-16,90,52,10,30.17,30.05,27,15,31,0.00
2013-12-12,66,45,35,8,-8,-16,14,10,10,30.17,29.88,21,10,23,0.00
2013-12-13,50,34,23,15,-1,-17,67,30,10,30.00,29.80,27,12,32,0.00
2013-12-14,41,28,19,16,10,3,88,50,20,30.14,30.00,19,8,20,0.00
2013-12-15,53,41,30,14,2,-10,45,23,10,30.10,30.04,23,11,23,0.00
2013-12-16,63,47,40,8,0,-11,26,14,10,30.17,30.05,21,9,22,0.00
2013-12-17,59,46,34,12,1,-9,39,17,10,30.22,30.06,21,12,23,0.00
2013-12-18,60,51,45,4,-3,-8,13,10,10,30.06,29.77,23,12,27,0.00
2013-12-19,57,42,18,23,11,-4,99,40,10,29.77,29.59,27,13,37,0.00
2013-12-20,42,24,16,31,22,15,99,92,46,29.73,29.58,13,5,14,0.00
2013-12-21,23,23,23,22,22,22,97,97,97,29.76,29.50,5,5,5,0.00
2013-12-22,34,24,16,22,15,2,99,74,36,30.06,29.76,15,6,18,0.00
2013-12-23,41,27,13,17,14,9,99,62,30,30.16,30.06,26,11,31,0.00
2013-12-24,49,33,18,26,16,1,99,55,15,30.19,29.99,39,15,45,0.00
2013-12-25,39,28,20,6,-3,-12,46,26,12,30.28,30.17,17,10,21,0.00
2013-12-26,56,39,32,6,-6,-18,32,15,10,30.24,30.15,19,11,21,0.00
2013-12-27,62,44,31,9,4,-3,33,21,10,30.25,30.07,14,8,17,0.00
2013-12-28,52,38,16,24,12,1,99,44,12,30.07,29.90,35,16,45,0.00
2013-12-29,37,20,10,27,15,7,99,82,43,30.11,29.91,30,12,34,0.00
2013-12-30,49,30,23,14,10,2,62,44,15,30.14,29.93,24,10,26,0.00
2013-12-31,54,38,23,18,11,3,60,33,16,30.08,29.95,24,11,26,0.00
2014-1-1,34,27,16,27,20,15,99,80,44,30.18,29.91,30,13,40,0.00
2014-1-2,46,33,15,18,8,-12,99,43,10,30.17,30.02,23,11,26,0.00